Year,Month,Day,Hour,Minute,Value (Times are PST for temperature in C)
2013,07,19,00,00,16.20
2013,07,19,00,01,16.20
2013,07,19,00,02,16.20
2013,07,19,00,03,16.20
2013,07,19,00,04,16.20
2013,07,19,00,05,16.10
2013,07,19,00,06,16.10
2013,07,19,00,07,16.10
2013,07,19,00,08,16.10
2013,07,19,00,09,16.10
2013,07,19,00,10,16.10
2013,07,19,00,11,16.10
2013,07,19,00,12,16.10
2013,07,19,00,13,16.10
2013,07,19,00,14,16.10
2013,07,19,00,15,16.10
2013,07,19,00,16,16.10
2013,07,19,00,17,16.10
2013,07,19,00,18,15.90
2013,07,19,00,19,15.90
2013,07,19,00,20,15.90
2013,07,19,00,21,15.90
2013,07,19,00,22,15.90
2013,07,19,00,23,15.90
2013,07,19,00,24,15.90
2013,07,19,00,25,15.90
2013,07,19,00,26,15.80
2013,07,19,00,27,15.80
2013,07,19,00,28,15.80
2013,07,19,00,29,15.80
2013,07,19,00,30,15.80
2013,07,19,00,31,15.80
2013,07,19,00,32,15.80
2013,07,19,00,33,15.80
2013,07,19,00,34,15.80
2013,07,19,00,35,15.80
2013,07,19,00,36,15.80
2013,07,19,00,37,15.80
2013,07,19,00,38,15.80
2013,07,19,00,39,15.80
2013,07,19,00,40,15.80
2013,07,19,00,41,15.80
2013,07,19,00,42,15.80
2013,07,19,00,43,15.80
2013,07,19,00,44,15.80
2013,07,19,00,45,15.80
2013,07,19,00,46,15.80
2013,07,19,00,47,15.80
2013,07,19,00,48,15.80
2013,07,19,00,49,15.80
2013,07,19,00,50,15.80
2013,07,19,00,51,15.80
2013,07,19,00,52,15.80
2013,07,19,00,53,15.80
2013,07,19,00,54,15.80
2013,07,19,00,55,15.70
2013,07,19,00,56,15.70
2013,07,19,00,57,15.70
2013,07,19,00,58,15.70
2013,07,19,00,59,15.70
2013,07,19,01,00,15.70
2013,07,19,01,01,15.70
2013,07,19,01,02,15.60
2013,07,19,01,03,15.60
2013,07,19,01,04,15.60
2013,07,19,01,05,15.60
2013,07,19,01,06,15.60
2013,07,19,01,07,15.60
2013,07,19,01,08,15.60
2013,07,19,01,09,15.60
2013,07,19,01,10,15.60
2013,07,19,01,11,15.60
2013,07,19,01,12,15.60
2013,07,19,01,13,15.60
2013,07,19,01,14,15.60
2013,07,19,01,15,15.50
2013,07,19,01,16,15.50
2013,07,19,01,17,15.50
2013,07,19,01,18,15.50
2013,07,19,01,19,15.50
2013,07,19,01,20,15.50
2013,07,19,01,21,15.50
2013,07,19,01,22,15.50
2013,07,19,01,23,15.50
2013,07,19,01,24,15.40
2013,07,19,01,25,15.40
2013,07,19,01,26,15.40
2013,07,19,01,27,15.40
2013,07,19,01,28,15.40
2013,07,19,01,29,15.40
2013,07,19,01,30,15.40
2013,07,19,01,31,15.30
2013,07,19,01,32,15.30
2013,07,19,01,33,15.30
2013,07,19,01,34,15.30
2013,07,19,01,35,15.30
2013,07,19,01,36,15.30
2013,07,19,01,37,15.30
2013,07,19,01,38,15.30
2013,07,19,01,39,15.30
2013,07,19,01,40,15.30
2013,07,19,01,41,15.20
2013,07,19,01,42,15.20
2013,07,19,01,43,15.20
2013,07,19,01,44,15.20
2013,07,19,01,45,15.10
2013,07,19,01,46,15.10
2013,07,19,01,47,15.10
2013,07,19,01,48,15.10
2013,07,19,01,49,15.10
2013,07,19,01,50,15.10
2013,07,19,01,51,15.10
2013,07,19,01,52,15.10
2013,07,19,01,53,15.10
2013,07,19,01,54,15.10
2013,07,19,01,55,15.10
2013,07,19,01,56,15.10
2013,07,19,01,57,15.10
2013,07,19,01,58,15.10
2013,07,19,01,59,15.10
2013,07,19,02,00,15.10
2013,07,19,02,01,15.10
2013,07,19,02,02,15.10
2013,07,19,02,03,15.10
2013,07,19,02,04,15.10
2013,07,19,02,05,15.10
2013,07,19,02,06,15.00
2013,07,19,02,07,15.00
2013,07,19,02,08,15.00
2013,07,19,02,09,15.00
2013,07,19,02,10,15.00
2013,07,19,02,11,15.00
2013,07,19,02,12,14.90
2013,07,19,02,13,14.90
2013,07,19,02,14,14.90
2013,07,19,02,15,14.90
2013,07,19,02,16,14.90
2013,07,19,02,17,14.90
2013,07,19,02,18,14.80
2013,07,19,02,19,14.80
2013,07,19,02,20,14.80
2013,07,19,02,21,14.80
2013,07,19,02,22,14.80
2013,07,19,02,23,14.80
2013,07,19,02,24,14.80
2013,07,19,02,25,14.80
2013,07,19,02,26,14.80
2013,07,19,02,27,14.80
2013,07,19,02,28,14.80
2013,07,19,02,29,14.80
2013,07,19,02,30,14.80
2013,07,19,02,31,14.80
2013,07,19,02,32,14.80
2013,07,19,02,33,14.80
2013,07,19,02,34,14.80
2013,07,19,02,35,14.80
2013,07,19,02,36,14.80
2013,07,19,02,37,14.80
2013,07,19,02,38,14.80
2013,07,19,02,39,14.80
2013,07,19,02,40,14.80
2013,07,19,02,41,14.70
2013,07,19,02,42,14.70
2013,07,19,02,43,14.70
2013,07,19,02,44,14.70
2013,07,19,02,45,14.70
2013,07,19,02,46,14.70
2013,07,19,02,47,14.70
2013,07,19,02,48,14.70
2013,07,19,02,49,14.70
2013,07,19,02,50,14.70
2013,07,19,02,51,14.70
2013,07,19,02,52,14.70
2013,07,19,02,53,14.70
2013,07,19,02,54,14.70
2013,07,19,02,55,14.70
2013,07,19,02,56,14.70
2013,07,19,02,57,14.70
2013,07,19,02,58,14.70
2013,07,19,02,59,14.70
2013,07,19,03,00,14.70
2013,07,19,03,01,14.70
2013,07,19,03,02,14.70
2013,07,19,03,03,14.70
2013,07,19,03,04,14.70
2013,07,19,03,05,14.70
2013,07,19,03,06,14.70
2013,07,19,03,07,14.70
2013,07,19,03,08,14.70
2013,07,19,03,09,14.70
2013,07,19,03,10,14.70
2013,07,19,03,11,14.70
2013,07,19,03,12,14.70
2013,07,19,03,13,14.60
2013,07,19,03,14,14.60
2013,07,19,03,15,14.60
2013,07,19,03,16,14.60
2013,07,19,03,17,14.60
2013,07,19,03,18,14.60
2013,07,19,03,19,14.60
2013,07,19,03,20,14.60
2013,07,19,03,21,14.60
2013,07,19,03,22,14.60
2013,07,19,03,23,14.60
2013,07,19,03,24,14.60
2013,07,19,03,25,14.60
2013,07,19,03,26,14.50
2013,07,19,03,27,14.50
2013,07,19,03,28,14.50
2013,07,19,03,29,14.50
2013,07,19,03,30,14.50
2013,07,19,03,31,14.50
2013,07,19,03,32,14.50
2013,07,19,03,33,14.50
2013,07,19,03,34,14.40
2013,07,19,03,35,14.40
2013,07,19,03,36,14.40
2013,07,19,03,37,14.40
2013,07,19,03,38,14.40
2013,07,19,03,39,14.40
2013,07,19,03,40,14.40
2013,07,19,03,41,14.40
2013,07,19,03,42,14.40
2013,07,19,03,43,14.30
2013,07,19,03,44,14.30
2013,07,19,03,45,14.30
2013,07,19,03,46,14.30
2013,07,19,03,47,14.30
2013,07,19,03,48,14.30
2013,07,19,03,49,14.20
2013,07,19,03,50,14.20
2013,07,19,03,51,14.20
2013,07,19,03,52,14.20
2013,07,19,03,53,14.20
2013,07,19,03,54,14.20
2013,07,19,03,55,14.20
2013,07,19,03,56,14.20
2013,07,19,03,57,14.20
2013,07,19,03,58,14.20
2013,07,19,03,59,14.20
2013,07,19,04,00,14.20
2013,07,19,04,01,14.20
2013,07,19,04,02,14.20
2013,07,19,04,03,14.20
2013,07,19,04,04,14.20
2013,07,19,04,05,14.20
2013,07,19,04,06,14.20
2013,07,19,04,07,14.20
2013,07,19,04,08,14.20
2013,07,19,04,09,14.20
2013,07,19,04,10,14.20
2013,07,19,04,11,14.20
2013,07,19,04,12,14.20
2013,07,19,04,13,14.20
2013,07,19,04,14,14.20
2013,07,19,04,15,14.20
2013,07,19,05,57,14.00
2013,07,19,05,58,14.00
2013,07,19,05,59,14.00
2013,07,19,06,00,14.00
2013,07,19,06,01,14.00
2013,07,19,06,02,14.00
2013,07,19,06,03,14.10
2013,07,19,06,04,14.10
2013,07,19,06,05,14.00
2013,07,19,06,06,14.00
2013,07,19,06,07,14.00
2013,07,19,06,08,14.00
2013,07,19,06,09,14.00
2013,07,19,06,10,14.00
2013,07,19,06,11,14.00
2013,07,19,06,12,14.10
2013,07,19,06,13,14.10
2013,07,19,06,14,14.10
2013,07,19,06,15,14.10
2013,07,19,06,16,14.10
2013,07,19,06,17,14.10
2013,07,19,06,18,14.10
2013,07,19,06,19,14.10
2013,07,19,06,20,14.10
2013,07,19,06,21,14.10
2013,07,19,06,22,14.10
2013,07,19,06,23,14.10
2013,07,19,06,24,14.10
2013,07,19,06,25,14.10
2013,07,19,06,26,14.10
2013,07,19,06,27,14.10
2013,07,19,06,28,14.10
2013,07,19,06,29,14.10
2013,07,19,06,30,14.10
2013,07,19,06,31,14.10
2013,07,19,06,32,14.10
2013,07,19,06,33,14.10
2013,07,19,06,34,14.10
2013,07,19,06,35,14.10
2013,07,19,06,36,14.10
2013,07,19,06,37,14.10
2013,07,19,06,38,14.20
2013,07,19,06,39,14.20
2013,07,19,06,40,14.20
2013,07,19,06,41,14.20
2013,07,19,06,42,14.20
2013,07,19,06,43,14.20
2013,07,19,06,44,14.20
2013,07,19,06,45,14.20
2013,07,19,06,46,14.20
2013,07,19,06,47,14.20
2013,07,19,06,48,14.20
2013,07,19,06,49,14.20
2013,07,19,06,50,14.20
2013,07,19,06,51,14.20
2013,07,19,06,52,14.20
2013,07,19,06,53,14.20
2013,07,19,06,54,14.20
2013,07,19,06,55,14.20
2013,07,19,06,56,14.20
2013,07,19,06,57,14.20
2013,07,19,06,58,14.20
2013,07,19,06,59,14.20
2013,07,19,07,00,14.20
2013,07,19,07,01,14.20
2013,07,19,07,02,14.20
2013,07,19,07,03,14.20
2013,07,19,07,04,14.20
2013,07,19,07,05,14.20
2013,07,19,07,06,14.20
2013,07,19,07,07,14.20
2013,07,19,07,08,14.20
2013,07,19,07,09,14.20
2013,07,19,07,10,14.20
2013,07,19,07,11,14.20
2013,07,19,07,12,14.20
2013,07,19,07,13,14.20
2013,07,19,07,14,14.20
2013,07,19,07,15,14.20
2013,07,19,07,16,14.20
2013,07,19,07,17,14.20
2013,07,19,07,18,14.20
2013,07,19,07,19,14.20
2013,07,19,07,20,14.20
2013,07,19,07,21,14.20
2013,07,19,07,22,14.20
2013,07,19,07,23,14.20
2013,07,19,07,24,14.20
2013,07,19,07,25,14.20
2013,07,19,07,26,14.20
2013,07,19,07,27,14.30
2013,07,19,07,28,14.30
2013,07,19,07,29,14.30
2013,07,19,07,30,14.30
2013,07,19,07,31,14.30
2013,07,19,07,32,14.30
2013,07,19,07,33,14.30
2013,07,19,07,34,14.40
2013,07,19,07,35,14.40
2013,07,19,07,36,14.40
2013,07,19,07,37,14.40
2013,07,19,07,38,14.40
2013,07,19,07,39,14.40
2013,07,19,07,40,14.40
2013,07,19,07,41,14.40
2013,07,19,07,42,14.40
2013,07,19,07,43,14.40
2013,07,19,07,44,14.40
2013,07,19,07,45,14.50
2013,07,19,07,46,14.50
2013,07,19,07,47,14.50
2013,07,19,07,48,14.50
2013,07,19,07,49,14.50
2013,07,19,07,50,14.50
2013,07,19,07,51,14.50
2013,07,19,07,52,14.60
2013,07,19,07,53,14.60
2013,07,19,07,54,14.60
2013,07,19,07,55,14.60
2013,07,19,07,56,14.60
2013,07,19,07,57,14.70
2013,07,19,07,58,14.70
2013,07,19,07,59,14.70
2013,07,19,08,00,14.70
2013,07,19,08,01,14.70
2013,07,19,08,02,14.70
2013,07,19,08,03,14.70
2013,07,19,08,04,14.70
2013,07,19,08,05,14.80
2013,07,19,08,06,14.80
2013,07,19,08,07,14.80
2013,07,19,08,08,14.80
2013,07,19,08,09,14.80
2013,07,19,08,10,14.80
2013,07,19,08,11,14.80
2013,07,19,08,12,14.80
2013,07,19,08,13,14.80
2013,07,19,08,14,14.80
2013,07,19,08,15,14.80
2013,07,19,08,16,14.80
2013,07,19,08,17,14.80
2013,07,19,08,18,14.80
2013,07,19,08,19,14.80
2013,07,19,08,20,14.80
2013,07,19,08,21,14.80
2013,07,19,08,22,14.80
2013,07,19,08,23,14.80
2013,07,19,08,24,14.80
2013,07,19,08,25,14.80
2013,07,19,08,26,14.90
2013,07,19,08,27,14.90
2013,07,19,08,28,14.90
2013,07,19,08,29,15.00
2013,07,19,08,30,15.10
2013,07,19,08,31,15.10
2013,07,19,08,32,15.10
2013,07,19,08,33,15.10
2013,07,19,08,34,15.10
2013,07,19,08,35,15.20
2013,07,19,08,36,15.10
2013,07,19,08,37,15.10
2013,07,19,08,38,15.10
2013,07,19,08,39,15.10
2013,07,19,08,40,15.10
2013,07,19,08,41,15.10
2013,07,19,08,42,15.10
2013,07,19,08,43,15.10
2013,07,19,08,44,15.10
2013,07,19,08,45,15.10
2013,07,19,08,46,15.10
2013,07,19,08,47,15.10
2013,07,19,08,48,15.10
2013,07,19,08,49,15.10
2013,07,19,08,50,15.10
2013,07,19,08,51,15.20
2013,07,19,08,52,15.20
2013,07,19,08,53,15.20
2013,07,19,08,54,15.20
2013,07,19,08,55,15.20
2013,07,19,08,56,15.20
2013,07,19,08,57,15.20
2013,07,19,08,58,15.20
2013,07,19,08,59,15.20
2013,07,19,09,00,15.20
2013,07,19,09,01,15.30
2013,07,19,09,02,15.30
2013,07,19,09,03,15.30
2013,07,19,09,04,15.30
2013,07,19,09,05,15.30
2013,07,19,09,06,15.30
2013,07,19,09,07,15.30
2013,07,19,09,08,15.40
2013,07,19,09,09,15.40
2013,07,19,09,10,15.50
2013,07,19,09,11,15.50
2013,07,19,09,12,15.50
2013,07,19,09,13,15.50
2013,07,19,09,14,15.60
2013,07,19,09,15,15.60
2013,07,19,09,16,15.70
2013,07,19,09,17,15.70
2013,07,19,09,18,15.80
2013,07,19,09,19,15.80
2013,07,19,09,20,15.80
2013,07,19,09,21,15.80
2013,07,19,09,22,15.80
2013,07,19,09,23,15.80
2013,07,19,09,24,15.90
2013,07,19,09,25,15.80
2013,07,19,09,26,15.90
2013,07,19,09,27,15.90
2013,07,19,09,28,15.90
2013,07,19,09,29,15.90
2013,07,19,09,30,15.90
2013,07,19,09,31,16.10
2013,07,19,09,32,16.10
2013,07,19,09,33,16.10
2013,07,19,09,34,16.10
2013,07,19,09,35,16.10
2013,07,19,09,36,16.10
2013,07,19,09,37,16.10
2013,07,19,09,38,16.10
2013,07,19,09,39,16.10
2013,07,19,09,40,16.10
2013,07,19,09,41,16.10
2013,07,19,09,42,16.10
2013,07,19,09,43,16.10
2013,07,19,09,44,16.20
2013,07,19,09,45,16.20
2013,07,19,09,46,16.30
2013,07,19,09,47,16.30
2013,07,19,09,48,16.40
2013,07,19,09,49,16.40
2013,07,19,09,50,16.30
2013,07,19,09,51,16.30
2013,07,19,09,52,16.30
2013,07,19,09,53,16.30
2013,07,19,09,54,16.30
2013,07,19,09,55,16.30
2013,07,19,09,56,16.30
2013,07,19,09,57,16.30
2013,07,19,09,58,16.30
2013,07,19,09,59,16.20
2013,07,19,10,00,16.20
2013,07,19,10,01,16.30
2013,07,19,10,02,16.30
2013,07,19,10,03,16.30
2013,07,19,10,04,16.30
2013,07,19,10,05,16.40
2013,07,19,10,06,16.40
2013,07,19,10,07,16.40
2013,07,19,10,08,16.30
2013,07,19,10,09,16.30
2013,07,19,10,10,16.30
2013,07,19,10,11,16.30
2013,07,19,10,12,16.30
2013,07,19,10,13,16.30
2013,07,19,10,14,16.30
2013,07,19,10,15,16.30
2013,07,19,10,16,16.40
2013,07,19,10,17,16.40
2013,07,19,10,18,16.60
2013,07,19,10,19,16.60
2013,07,19,10,20,16.70
2013,07,19,10,21,16.70
2013,07,19,10,22,16.80
2013,07,19,10,23,16.80
2013,07,19,10,24,16.90
2013,07,19,10,25,17.00
2013,07,19,10,26,17.00
2013,07,19,10,27,17.10
2013,07,19,10,28,17.10
2013,07,19,10,29,17.10
2013,07,19,10,30,17.10
2013,07,19,10,31,17.10
2013,07,19,10,32,17.10
2013,07,19,10,33,17.20
2013,07,19,10,34,17.20
2013,07,19,10,35,17.20
2013,07,19,10,36,17.30
2013,07,19,10,37,17.30
2013,07,19,10,38,17.40
2013,07,19,10,39,17.50
2013,07,19,10,40,17.50
2013,07,19,10,41,17.60
2013,07,19,10,42,17.60
2013,07,19,10,43,17.60
2013,07,19,10,44,17.60
2013,07,19,10,45,17.70
2013,07,19,10,46,17.70
2013,07,19,10,47,17.70
2013,07,19,10,48,17.70
2013,07,19,10,49,17.70
2013,07,19,10,50,17.80
2013,07,19,10,51,17.70
2013,07,19,10,52,17.70
2013,07,19,10,53,17.70
2013,07,19,10,54,17.80
2013,07,19,10,55,17.80
2013,07,19,10,56,17.90
2013,07,19,10,57,17.90
2013,07,19,10,58,18.10
2013,07,19,10,59,18.20
2013,07,19,11,00,18.20
2013,07,19,11,01,18.20
2013,07,19,11,02,18.20
2013,07,19,11,03,18.20
2013,07,19,11,04,18.20
2013,07,19,11,05,18.20
2013,07,19,11,06,18.20
2013,07,19,11,07,18.30
2013,07,19,11,08,18.40
2013,07,19,11,09,18.50
2013,07,19,11,10,18.60
2013,07,19,11,11,18.70
2013,07,19,11,12,18.70
2013,07,19,11,13,18.70
2013,07,19,11,14,18.80
2013,07,19,11,15,18.80
2013,07,19,11,16,18.90
2013,07,19,11,17,18.90
2013,07,19,11,18,18.90
2013,07,19,11,19,18.90
2013,07,19,11,20,18.80
2013,07,19,11,21,18.80
2013,07,19,11,22,18.80
2013,07,19,11,23,18.80
2013,07,19,11,24,18.80
2013,07,19,11,25,18.70
2013,07,19,11,26,18.70
2013,07,19,11,27,18.70
2013,07,19,11,28,18.80
2013,07,19,11,29,18.80
2013,07,19,11,30,18.90
2013,07,19,11,31,18.90
2013,07,19,11,32,18.90
2013,07,19,11,33,18.90
2013,07,19,11,34,18.90
2013,07,19,11,35,18.90
2013,07,19,11,36,18.90
2013,07,19,11,37,18.90
2013,07,19,11,38,18.90
2013,07,19,11,39,18.90
2013,07,19,11,40,18.90
2013,07,19,11,41,18.90
2013,07,19,11,42,18.90
2013,07,19,11,43,18.90
2013,07,19,11,44,18.90
2013,07,19,11,45,18.90
2013,07,19,11,46,18.90
2013,07,19,11,47,19.10
2013,07,19,11,48,19.10
2013,07,19,11,49,19.20
2013,07,19,11,50,19.20
2013,07,19,11,51,19.30
2013,07,19,11,52,19.30
2013,07,19,11,53,19.40
2013,07,19,11,54,19.50
2013,07,19,11,55,19.60
2013,07,19,11,56,19.60
2013,07,19,11,57,19.60
2013,07,19,11,58,19.60
2013,07,19,11,59,19.60
2013,07,19,12,00,19.60
2013,07,19,12,01,19.60
2013,07,19,12,02,19.60
2013,07,19,12,03,19.60
2013,07,19,12,04,19.60
2013,07,19,12,05,19.60
2013,07,19,12,06,19.60
2013,07,19,12,07,19.70
2013,07,19,12,08,19.70
2013,07,19,12,09,19.60
2013,07,19,12,10,19.60
2013,07,19,12,11,19.60
2013,07,19,12,12,19.60
2013,07,19,12,13,19.60
2013,07,19,12,14,19.60
2013,07,19,12,15,19.60
2013,07,19,12,16,19.60
2013,07,19,12,17,19.50
2013,07,19,12,18,19.50
2013,07,19,12,19,19.60
2013,07,19,12,20,19.50
2013,07,19,12,21,19.50
2013,07,19,12,22,19.40
2013,07,19,12,23,19.30
2013,07,19,12,24,19.30
2013,07,19,12,25,19.30
2013,07,19,12,26,19.30
2013,07,19,12,27,19.40
2013,07,19,12,28,19.50
2013,07,19,12,29,19.60
2013,07,19,12,30,19.70
2013,07,19,12,31,19.70
2013,07,19,12,32,19.70
2013,07,19,12,33,19.80
2013,07,19,12,34,19.80
2013,07,19,12,35,19.90
2013,07,19,12,36,19.90
2013,07,19,12,37,19.90
2013,07,19,12,38,20.10
2013,07,19,12,39,20.20
2013,07,19,12,40,20.20
2013,07,19,12,41,20.20
2013,07,19,12,42,20.30
2013,07,19,12,43,20.40
2013,07,19,12,44,20.40
2013,07,19,12,45,20.30
2013,07,19,12,46,20.40
2013,07,19,12,47,20.30
2013,07,19,12,48,20.40
2013,07,19,12,49,20.40
2013,07,19,12,50,20.40
2013,07,19,12,51,20.40
2013,07,19,12,52,20.40
2013,07,19,12,53,20.40
2013,07,19,12,54,20.50
2013,07,19,12,55,20.50
2013,07,19,12,56,20.60
2013,07,19,12,57,20.70
2013,07,19,12,58,20.80
2013,07,19,12,59,20.90
2013,07,19,13,00,20.90
2013,07,19,13,01,21.00
2013,07,19,13,02,21.10
2013,07,19,13,03,21.20
2013,07,19,13,04,21.30
2013,07,19,13,05,21.30
2013,07,19,13,06,21.40
2013,07,19,13,07,21.60
2013,07,19,13,08,21.60
2013,07,19,13,09,21.60
2013,07,19,13,10,21.60
2013,07,19,13,11,21.70
2013,07,19,13,12,21.70
2013,07,19,13,13,21.80
2013,07,19,13,14,21.80
2013,07,19,13,15,21.90
2013,07,19,13,16,21.90
2013,07,19,13,17,22.00
2013,07,19,13,18,22.10
2013,07,19,13,19,22.10
2013,07,19,13,20,22.30
2013,07,19,13,21,22.40
2013,07,19,13,22,22.40
2013,07,19,13,23,22.50
2013,07,19,13,24,22.50
2013,07,19,13,25,22.60
2013,07,19,13,26,22.60
2013,07,19,13,27,22.70
2013,07,19,13,28,22.80
2013,07,19,13,29,22.90
2013,07,19,13,30,22.90
2013,07,19,13,31,22.90
2013,07,19,13,32,22.90
2013,07,19,13,33,22.90
2013,07,19,13,34,22.90
2013,07,19,13,35,22.90
2013,07,19,13,36,22.90
2013,07,19,13,37,23.10
2013,07,19,13,38,23.20
2013,07,19,13,39,23.30
2013,07,19,13,40,23.30
2013,07,19,13,41,23.30
2013,07,19,13,42,23.40
2013,07,19,13,43,23.40
2013,07,19,13,44,23.40
2013,07,19,13,45,23.60
2013,07,19,13,46,23.60
2013,07,19,13,47,23.60
2013,07,19,13,48,23.60
2013,07,19,13,49,23.60
2013,07,19,13,50,23.60
2013,07,19,13,51,23.60
2013,07,19,13,52,23.70
2013,07,19,13,53,23.70
2013,07,19,13,54,23.70
2013,07,19,13,55,23.70
2013,07,19,13,56,23.70
2013,07,19,13,57,23.70
2013,07,19,13,58,23.70
2013,07,19,13,59,23.70
2013,07,19,14,00,23.70
2013,07,19,14,01,23.60
2013,07,19,14,02,23.60
2013,07,19,14,03,23.40
2013,07,19,14,04,23.60
2013,07,19,14,05,23.60
2013,07,19,14,06,23.60
2013,07,19,14,07,23.70
2013,07,19,14,08,23.70
2013,07,19,14,09,23.60
2013,07,19,14,10,23.40
2013,07,19,14,11,23.40
2013,07,19,14,12,23.30
2013,07,19,14,13,23.30
2013,07,19,14,14,23.30
2013,07,19,14,15,23.40
2013,07,19,14,16,23.40
2013,07,19,14,17,23.60
2013,07,19,14,18,23.60
2013,07,19,14,19,23.70
2013,07,19,14,20,23.70
2013,07,19,14,21,23.80
2013,07,19,14,22,23.90
2013,07,19,14,23,23.90
2013,07,19,14,24,24.10
2013,07,19,14,25,24.10
2013,07,19,14,26,24.20
2013,07,19,14,27,24.30
2013,07,19,14,28,24.30
2013,07,19,14,29,24.40
2013,07,19,14,30,24.40
2013,07,19,14,31,24.50
2013,07,19,14,32,24.50
2013,07,19,14,33,24.50
2013,07,19,14,34,24.60
2013,07,19,14,35,24.50
2013,07,19,14,36,24.40
2013,07,19,14,37,24.40
2013,07,19,14,38,24.30
2013,07,19,14,39,24.20
2013,07,19,14,40,24.20
2013,07,19,14,41,24.20
2013,07,19,14,42,24.20
2013,07,19,14,43,24.20
2013,07,19,14,44,24.10
2013,07,19,14,45,24.10
2013,07,19,14,46,24.10
2013,07,19,14,47,24.10
2013,07,19,14,48,24.10
2013,07,19,14,49,24.10
2013,07,19,14,50,24.20
2013,07,19,14,51,24.20
2013,07,19,14,52,24.20
2013,07,19,14,53,24.10
2013,07,19,14,54,24.20
2013,07,19,14,55,24.20
2013,07,19,14,56,24.20
2013,07,19,14,57,24.30
2013,07,19,14,58,24.30
2013,07,19,14,59,24.20
2013,07,19,15,00,24.20
2013,07,19,15,01,24.20
2013,07,19,15,02,24.20
2013,07,19,15,03,24.20
2013,07,19,15,04,24.20
2013,07,19,15,05,24.20
2013,07,19,15,06,24.20
2013,07,19,15,07,24.20
2013,07,19,15,08,24.20
2013,07,19,15,09,24.10
2013,07,19,15,10,24.10
2013,07,19,15,11,24.10
2013,07,19,15,12,24.10
2013,07,19,15,13,23.90
2013,07,19,15,14,23.90
2013,07,19,15,15,23.90
2013,07,19,15,16,23.90
2013,07,19,15,17,23.90
2013,07,19,15,18,23.90
2013,07,19,15,19,23.90
2013,07,19,15,20,23.90
2013,07,19,15,21,23.90
2013,07,19,15,22,24.10
2013,07,19,15,23,23.90
2013,07,19,15,24,23.90
2013,07,19,15,25,23.90
2013,07,19,15,26,24.10
2013,07,19,15,27,24.10
2013,07,19,15,28,24.10
2013,07,19,15,29,24.10
2013,07,19,15,30,24.10
2013,07,19,15,31,24.10
2013,07,19,15,32,24.10
2013,07,19,15,33,24.10
2013,07,19,15,34,24.10
2013,07,19,15,35,23.90
2013,07,19,15,36,23.90
2013,07,19,15,37,23.90
2013,07,19,15,38,23.90
2013,07,19,15,39,24.10
2013,07,19,15,40,24.10
2013,07,19,15,41,24.10
2013,07,19,15,42,24.10
2013,07,19,15,43,24.10
2013,07,19,15,44,24.10
2013,07,19,15,45,24.10
2013,07,19,15,46,24.10
2013,07,19,15,47,24.10
2013,07,19,15,48,24.10
2013,07,19,15,49,24.10
2013,07,19,15,50,24.10
2013,07,19,15,51,24.10
2013,07,19,15,52,24.10
2013,07,19,15,53,24.20
2013,07,19,15,54,24.20
2013,07,19,15,55,24.30
2013,07,19,15,56,24.20
2013,07,19,15,57,24.20
2013,07,19,15,58,24.20
2013,07,19,15,59,24.20
2013,07,19,16,00,24.20
2013,07,19,16,01,24.20
2013,07,19,16,02,24.20
2013,07,19,16,03,24.20
2013,07,19,16,04,24.30
2013,07,19,16,05,24.30
2013,07,19,16,06,24.40
2013,07,19,16,07,24.50
2013,07,19,16,08,24.60
2013,07,19,16,09,24.70
2013,07,19,16,10,24.70
2013,07,19,16,11,24.70
2013,07,19,16,12,24.70
2013,07,19,16,13,24.70
2013,07,19,16,14,24.70
2013,07,19,16,15,24.80
2013,07,19,16,16,24.80
2013,07,19,16,17,24.80
2013,07,19,16,18,24.80
2013,07,19,16,19,24.70
2013,07,19,16,20,24.60
2013,07,19,16,21,24.60
2013,07,19,16,22,24.60
2013,07,19,16,23,24.50
2013,07,19,16,24,24.50
2013,07,19,16,25,24.50
2013,07,19,16,26,24.50
2013,07,19,16,27,24.40
2013,07,19,16,28,24.40
2013,07,19,16,29,24.40
2013,07,19,16,30,24.40
2013,07,19,16,31,24.50
2013,07,19,16,32,24.50
2013,07,19,16,33,24.50
2013,07,19,16,34,24.50
2013,07,19,16,35,24.50
2013,07,19,16,36,24.60
2013,07,19,16,37,24.60
2013,07,19,16,38,24.70
2013,07,19,16,39,24.70
2013,07,19,16,40,24.70
2013,07,19,16,41,24.70
2013,07,19,16,42,24.70
2013,07,19,16,43,24.70
2013,07,19,16,44,24.60
2013,07,19,16,45,24.60
2013,07,19,16,46,24.60
2013,07,19,16,47,24.60
2013,07,19,16,48,24.70
2013,07,19,16,49,24.70
2013,07,19,16,50,24.80
2013,07,19,16,51,24.80
2013,07,19,16,52,24.80
2013,07,19,16,53,24.90
2013,07,19,16,54,24.90
2013,07,19,16,55,24.90
2013,07,19,16,56,24.80
2013,07,19,16,57,24.70
2013,07,19,16,58,24.70
2013,07,19,16,59,24.70
2013,07,19,17,00,24.80
2013,07,19,17,01,24.90
2013,07,19,17,02,24.90
2013,07,19,17,03,25.00
2013,07,19,17,04,25.00
2013,07,19,17,05,24.90
2013,07,19,17,06,24.90
2013,07,19,17,07,24.80
2013,07,19,17,08,24.80
2013,07,19,17,09,24.80
2013,07,19,17,10,24.70
2013,07,19,17,11,24.70
2013,07,19,17,12,24.70
2013,07,19,17,13,24.60
2013,07,19,17,14,24.60
2013,07,19,17,15,24.50
2013,07,19,17,16,24.50
2013,07,19,17,17,24.50
2013,07,19,17,18,24.50
2013,07,19,17,19,24.50
2013,07,19,17,20,24.50
2013,07,19,17,21,24.40
2013,07,19,17,22,24.40
2013,07,19,17,23,24.50
2013,07,19,17,24,24.60
2013,07,19,17,25,24.60
2013,07,19,17,26,24.60
2013,07,19,17,27,24.60
2013,07,19,17,28,24.70
2013,07,19,17,29,24.70
2013,07,19,17,30,24.70
2013,07,19,17,31,24.70
2013,07,19,17,32,24.80
2013,07,19,17,33,24.80
2013,07,19,17,34,24.70
2013,07,19,17,35,24.60
2013,07,19,17,36,24.60
2013,07,19,17,37,24.50
2013,07,19,17,38,24.40
2013,07,19,17,39,24.30
2013,07,19,17,40,24.30
2013,07,19,17,41,24.30
2013,07,19,17,42,24.30
2013,07,19,17,43,24.40
2013,07,19,17,44,24.40
2013,07,19,17,45,24.40
2013,07,19,17,46,24.30
2013,07,19,17,47,24.30
2013,07,19,17,48,24.40
2013,07,19,17,49,24.50
2013,07,19,17,50,24.50
2013,07,19,17,51,24.60
2013,07,19,17,52,24.60
2013,07,19,17,53,24.60
2013,07,19,17,54,24.60
2013,07,19,17,55,24.50
2013,07,19,17,56,24.50
2013,07,19,17,57,24.50
2013,07,19,17,58,24.50
2013,07,19,17,59,24.50
2013,07,19,18,00,24.50
2013,07,19,18,01,24.60
2013,07,19,18,02,24.70
2013,07,19,18,03,24.70
2013,07,19,18,04,24.80
2013,07,19,18,05,24.90
2013,07,19,18,06,25.00
2013,07,19,18,07,24.90
2013,07,19,18,08,24.90
2013,07,19,18,09,24.70
2013,07,19,18,10,24.60
2013,07,19,18,11,24.60
2013,07,19,18,12,24.60
2013,07,19,18,13,24.50
2013,07,19,18,14,24.50
2013,07,19,18,15,24.40
2013,07,19,18,16,24.40
2013,07,19,18,17,24.50
2013,07,19,18,18,24.50
2013,07,19,18,19,24.50
2013,07,19,18,20,24.50
2013,07,19,18,21,24.50
2013,07,19,18,22,24.40
2013,07,19,18,23,24.40
2013,07,19,18,24,24.50
2013,07,19,18,25,24.60
2013,07,19,18,26,24.70
2013,07,19,18,27,24.70
2013,07,19,18,28,24.80
2013,07,19,18,29,24.70
2013,07,19,18,30,24.80
2013,07,19,18,31,24.80
2013,07,19,18,32,24.80
2013,07,19,18,33,24.80
2013,07,19,18,34,24.80
2013,07,19,18,35,24.80
2013,07,19,18,36,24.80
2013,07,19,18,37,24.80
2013,07,19,18,38,24.80
2013,07,19,18,39,24.70
2013,07,19,18,40,24.70
2013,07,19,18,41,24.70
2013,07,19,18,42,24.70
2013,07,19,18,43,24.70
2013,07,19,18,44,24.70
2013,07,19,18,45,24.60
2013,07,19,18,46,24.60
2013,07,19,18,47,24.50
2013,07,19,18,48,24.40
2013,07,19,18,49,24.30
2013,07,19,18,50,24.30
2013,07,19,18,51,24.30
2013,07,19,18,52,24.20
2013,07,19,18,53,24.20
2013,07,19,18,54,24.10
2013,07,19,18,55,24.10
2013,07,19,18,56,24.10
2013,07,19,18,57,24.10
2013,07,19,18,58,24.10
2013,07,19,18,59,24.10
2013,07,19,19,00,24.10